Regional Weather Roundup
Issued by NWS

Home | Current Version | Previous Version | Graphics & Text | Print | Product List | Glossary On
Versions: 1 2 3 4 5 6 7 8 9 10 11 12 13 14 15 16 17 18 19 20 21 22 23 24 25 26 27 28 29 30 31 32 33 34 35 36 37 38 39 40 41 42 43 44 45 46 47 48 49 50
918
ASUS43 KBIS 301510
RWRND

NORTH DAKOTA REGIONAL WEATHER ROUNDUP
NATIONAL WEATHER SERVICE BISMARCK ND
1000 AM CDT SAT APR 30 2016

NOTE: "FAIR" INDICATES FEW OR NO CLOUDS BELOW 12,000 FEET WITH NO
SIGNIFICANT WEATHER AND/OR OBSTRUCTIONS TO VISIBILITY.


NDZ001>003-009>011-017-301600-
NORTHWEST NORTH DAKOTA

CITY           SKY/WX    TMP DP  RH WIND       PRES   REMARKS
WILLISTON      SUNNY     52  33  48 NE9       30.27S
MINOT          SUNNY     54  31  41 NE9       30.28S
MINOT AFB      SUNNY     52  33  46 E9        30.27F
$$

NDZ018>021-031>035-040>046-301600-
SOUTHWEST NORTH DAKOTA

CITY           SKY/WX    TMP DP  RH WIND       PRES   REMARKS
BISMARCK       MOSUNNY   49  37  63 E15       30.20R
DICKINSON      SUNNY     45  32  60 NE13      30.18R
GARRISON         N/A     52  33  48 NE13G18   30.23R
HETTINGER ARPT CLOUDY    46  33  60 NE16      30.16R
$$

NDZ004>008-012>016-024-026-027-054-301600-
NORTHEAST NORTH DAKOTA

CITY           SKY/WX    TMP DP  RH WIND       PRES   REMARKS
GRAND FORKS    MOSUNNY   53  30  41 NE16      30.28S
GRND FRKS AFB  SUNNY     53  31  43 E16       30.28S
DEVILS LAKE    SUNNY     52  34  50 E16       30.28S
$$

NDZ022-023-025-028>030-036>039-047>053-301600-
SOUTHEAST NORTH DAKOTA

CITY           SKY/WX    TMP DP  RH WIND       PRES   REMARKS
FARGO          MOSUNNY   53  32  44 NE17G29   30.20S
JAMESTOWN      CLOUDY    51  32  48 NE21      30.20S
$$





USA.gov is the U.S. government's official web portal to all federal, state and local government web resources and services.